Regional Weather Roundup
Issued by NWS

Home | Current Version | Previous Version | Graphics & Text | Print | Product List | Glossary On
Versions: 1 2 3 4 5 6 7 8 9 10 11 12 13 14 15 16 17 18 19 20 21 22 23 24 25 26 27 28 29 30 31 32 33 34 35 36 37 38 39 40 41 42 43 44 45 46 47 48 49 50
000
ASUS43 KMKX 212110
RWRWI

WISCONSIN REGIONAL WEATHER ROUNDUP
NATIONAL WEATHER SERVICE MILWAUKEE/SULLIVAN WI
300 PM CST SUN JAN 21 2018

NOTE: "FAIR" INDICATES FEW OR NO CLOUDS BELOW 12,000 FEET WITH NO
SIGNIFICANT WEATHER AND/OR OBSTRUCTIONS TO VISIBILITY.

WIZ001-002-006>008-014>016-023>028-212200-
NORTHWEST WISCONSIN

CITY           SKY/WX    TMP DP  RH WIND       PRES   REMARKS
SUPERIOR ARPT  FAIR      31  29  94 NE6       30.02R WCI  25
ASHLAND        CLOUDY    30  29  96 NE8       30.02R FOG     WCI  22
HAYWARD        CLOUDY    39  28  64 CALM      29.97R
SIREN          CLOUDY    36  28  73 N5        29.98S WCI  32
CUMBERLAND     CLOUDY    36  28  75 N5        29.95R WCI  32
RICE LAKE      CLOUDY    38  30  73 CALM      29.97R
CHETEK         CLOUDY    36  30  80 CALM      29.95R
LADYSMITH      CLOUDY    38  31  75 N3        29.96R
EAU CLAIRE     CLOUDY    40  30  67 N8        29.92S WCI  34
MENOMONIE      CLOUDY    41  30  64 N7        29.93S
NEW RICHMOND   CLOUDY    37  28  70 N6        29.95S WCI  32
OSCEOLA        CLOUDY    37  29  72 N7        29.98S WCI  32
$$

WIZ003>005-009-010-017-018-212200-
NORTH CENTRAL WISCONSIN

CITY           SKY/WX    TMP DP  RH WIND       PRES   REMARKS
MANITOWISH WTR CLOUDY    38  30  75 N3        29.95R
ARBOR VITAE    CLOUDY    38  32  80 NW5       29.94R WCI  34
WOODRUFF       CLOUDY    38  32  80 NW5       29.94R WCI  34
RHINELANDER    CLOUDY    40  31  70 N5        29.93R
EAGLE RIVER    FAIR      36  30  79 CALM      29.94R
LAND O LAKES   CLOUDY    38  31  75 CALM      29.96R
PHILLIPS       CLOUDY    38  31  75 N3        29.93R
TOMAHAWK       CLOUDY    38  30  72 CALM      29.94R
MEDFORD        CLOUDY    39  29  66 N6        29.91R
MERRILL        CLOUDY    42  29  59 NE3       29.92S
$$

WIZ029-030-035-036-043>047-212200-
CENTRAL WISCONSIN

CITY           SKY/WX    TMP DP  RH WIND       PRES   REMARKS
WAUSAU         CLOUDY    44  30  57 NE5       29.89R
MOSINEE        PTSUNNY   43  32  65 NE5       29.91R
MARSHFIELD     CLOUDY    43  32  65 NE3       29.89S
STEVENS POINT  FAIR      41  31  67 E6        29.91R
WAUPACA        FAIR      45  33  64 CALM      29.92S
WAUTOMA        FAIR      42  33  70 NE7       29.91S
WISC RAPIDS    FAIR      44  30  57 E8        29.91S
CAMP DOUGLAS   CLOUDY    43  33  68 NE3       29.89R
$$

WIZ011>013-019>022-031-037>040-048>050-212200-
NORTHEAST WISCONSIN

CITY           SKY/WX    TMP DP  RH WIND       PRES   REMARKS
ANTIGO         CLOUDY    38  31  76 CALM      29.92R
SHAWANO        CLOUDY    45  33  64 CALM      29.92S
OCONTO         CLOUDY    40  32  74 E5        29.94R
STURGEON BAY   FAIR      40  33  76 E6        29.96R
GREEN BAY      FAIR      41  34  76 CALM      29.93S
MANITOWOC      LGT RAIN  34  33  96 E5        29.95R VSB<1/4 WCI  30
APPLETON       PTSUNNY   37  28  70 VRB5      29.90F FOG     WCI  34
CLINTONVILLE   FAIR      41  32  70 CALM      29.92S
OSHKOSH        FOG       32  32 100 SE3       29.92R VSB<1/4
$$

WIZ032>034-041-042-053>061-212200-
SOUTHWEST WISCONSIN

CITY           SKY/WX    TMP DP  RH WIND       PRES   REMARKS
LA CROSSE      CLOUDY    37  31  78 N3        29.89S
SPARTA         CLOUDY    42  34  73 NE3       29.90S
VIROQUA        CLOUDY    39  36  88 E3        29.86S
BOSCOBEL       CLOUDY    36  33  89 N5        29.89S FOG     WCI  32
PRAIRIE DU CHI DRIZZLE   33  32  96 CALM      29.87S
PLATTEVILLE    PTSUNNY   38  38 100 E9        29.86S WCI  31
$$

WIZ056-057-062-063-064-067-068-212200-
SOUTH CENTRAL WISCONSIN

CITY           SKY/WX    TMP DP  RH WIND       PRES   REMARKS
REEDSBURG      CLOUDY    39  35  85 E5        29.88S
BARABOO/DELLS  CLOUDY    37  32  82 NE3       29.89S
LONE ROCK      CLOUDY    36  35  96 CALM      29.89S FOG
MINERAL POINT  CLOUDY    41  41 100 E7        29.85S FOG
MADISON        CLOUDY    38  36  92 E5        29.90S FOG     WCI  34
MIDDLETON      CLOUDY    39  37  93 NE3       29.89S
WATERTOWN      CLOUDY    38  38 100 E6        29.90R FOG     WCI  33
MONROE         FOG       36  36 100 NE5       29.86S VSB 3/4 WCI  32
JANESVILLE     CLOUDY    39  39 100 NE6       29.88S FOG     WCI  35
$$

WIZ051-052-058>065-066-070>072-212200-
SOUTHEAST WISCONSIN

CITY           SKY/WX    TMP DP  RH WIND       PRES   REMARKS
MILWAUKEE      DRZL/FOG  37  36  96 NE6       29.92R VSB 1/2 WCI  32
WAUKESHA       FOG       36  36 100 E5        29.92R VSB 3/4 WCI  32
MILWAUKEE/TIMM RAIN      37  34  87 NE5       29.92S FOG     WCI  34
RACINE         FOG       37  36  96 E3        29.93R VSB 1/2
BURLINGTON     CLOUDY    38  37  95 E5        29.90R FOG     WCI  34
KENOSHA        CLOUDY    39  36  89 E6        29.91R FOG     WCI  35
FOND DU LAC    FOG       35  33  92 NE5       29.92R VSB<1/4 WCI  31
SHEBOYGAN      FOG       35  35 100 NE3       29.93S VSB 1
WEST BEND      CLOUDY    36  36 100 E3        29.92R FOG
JUNEAU         CLOUDY    37  36  93 CALM      29.92R FOG
$$

LSZ147-162-212200-
LAKE SUPERIOR

STATION/POSITION TIME  TEMP    WIND        PRES    WAVE
                       AIR SEA DIR/SP/G            HT/PER
                 (UTC) (F)     (DEG/KT/KT) (MB)    (FT/S)
DEVILS ISLAND    2100   29      50/ 10/ 11 1018.1R
SAXON HARBOR     2030   30      40/  7/  7 1016.3R
$$

LMZ867-665-643>646-212200-
LAKE MICHIGAN

STATION/POSITION TIME  TEMP    WIND        PRES    WAVE
                       AIR SEA DIR/SP/G            HT/PER
                 (UTC) (F)     (DEG/KT/KT) (MB)    (FT/S)
NORTHPORT PIER   2040   33     130/  3/  4 1014.6R
KEWAUNEE LAKESHO 2042   33     160/  2/  3 1013.6R
SHEBOYGAN LAKESH 2100   33      10/  3/  3 1014.4R
PORT WASHINGTON  2040   35      40/  3/  4 1014.9R
MILWAUKEE LAKESH 2050   35      40/  7/  7   N/A
KENOSHA   LAKESH 2100   35      90/  4/  5 1013.2
$$

TC  - TEMPERATURE IN CELSIUS
VSB - VISIBILITY IN STATUTE MILES
WCI - WIND CHILL INDEX
HX  - HEAT INDEX





USA.gov is the U.S. government's official web portal to all federal, state and local government web resources and services.